Regional Weather Roundup
Issued by NWS Cleveland, OH

Home | Current Version | Previous Version | Text Only | Print | Product List | Glossary Off
Versions: 1 2 3 4 5 6 7 8 9 10 11 12 13 14 15 16 17 18 19 20 21 22 23 24 25 26 27 28 29 30 31 32 33 34 35 36 37 38 39 40 41 42 43 44 45 46 47 48 49 50

774
ASUS41 KCLE 230510
RWRCLE
OHIO REGIONAL WEATHER ROUNDUP
NATIONAL WEATHER SERVICE CLEVELAND, OH
100 AM EDT SUN JUL 23 2017

NOTE: "FAIR" INDICATES FEW OR NO CLOUDS BELOW 12,000 FEET WITH NO
SIGNIFICANT WEATHER AND/OR OBSTRUCTIONS TO VISIBILITY.

OHZ001>008-015>018-024>027-034-035-043-044-230600-
   NORTHWEST OHIO

CITY           SKY/WX    TMP DP  RH WIND       PRES   REMARKS
DEFIANCE       CLEAR    N/A N/A N/A CALM      29.81S
FINDLAY        CLEAR     74  69  85 NW5       29.80S
TOLEDO EXPRESS CLEAR     72  70  93 NW3       29.79F
TOLEDO EXEC    CLEAR     74  70  87 NW6       29.80S
LIMA           CLEAR     73  71  93 W6        29.83S
$$

OHZ009>014-019>023-028>033-038-089-230600-
   NORTHEAST OHIO

CITY           SKY/WX    TMP DP  RH WIND       PRES   REMARKS
CLE-HOPKINS    PTCLDY    76  71  85 SW5       29.80R
CLE-LAKEFRONT  CLEAR     77  73  87 W12       29.76S
CUY CO. ARPT   NOT AVBL
LORAIN-ELYRIA  PTCLDY    73  67  81 NW3       29.79S
ASHTABULA      CLOUDY    72  72 100 S5        29.78S
AKRON-CANTON   PTCLDY    75  70  84 W6        29.81S
WOOSTER        CLEAR     71  69  93 W6        29.82S
MANSFIELD      PTCLDY    73  71  93 SW5       29.83R
YOUNGSTOWN     PTCLDY    72  71  97 S6        29.79S
$$

OHZ042-051>053-060>062-070>072-077>081-230600-
  SOUTHWEST OHIO

CITY           SKY/WX    TMP DP  RH WIND       PRES   REMARKS
CINC-COVINGTON TSTM      72  72 100 S5        29.85F
CINC-LUNKEN    LGT RAIN  73  73 100 SE3       29.84F
HAMILTON       CLOUDY    76  76 100 S3        29.84S
DAYTON         CLOUDY    76  71  85 W5        29.85S
WRIGHT-PAT AFB CLOUDY    77  75  95 CALM      29.84R
DAYTON GENERAL CLOUDY    78  72  81 SW5       29.84R THUNDER
WILMINGTON     CLOUDY    77  75  93 SW13      29.84S
$$

OHZ036-037-039>041-045>050-054>059-063>069-073>076-082>088-230600-
  CENTRAL AND SOUTHEAST OHIO

CITY           SKY/WX    TMP DP  RH WIND       PRES   REMARKS
COLUMBUS       CLOUDY    74  72  93 CALM      29.82R
OSU AIRPORT    PTCLDY    72  72 100 CALM      29.82S
BOLTON FIELD   CLOUDY    71  71  98 CALM      29.83F
RICKENBACK AFB CLOUDY    72  72 100 CALM      29.82S
NEWARK         PTCLDY    71  70  96 CALM      29.82F
MARION         CLEAR     73  69  87 SW6       29.82S
LANCASTER      CLOUDY    69  69 100 CALM      29.83S
ZANESVILLE     PTCLDY    72  71  97 CALM      29.82F FOG
NEW PHILLY     NOT AVBL
$$




USA.gov is the U.S. government's official web portal to all federal, state and local government web resources and services.